Temp
16 17 17 17 17 18 18 19 19 19 20 20 21 20 21 22 24 23 30 31 29 29 27 30 30 33 34 36 37 28 27 34 37 38 37 39 37 38 38 37 37 35 34 33 32
16 16 17 18 18 18 18 19 20 20 20 21 21 21 20 19 19 28 30 30 30 29 28 32 35 35 36 36 33 24 25 33 40 39 39 38 37 37 37 36 36 34 34 32 32
16 16 16 17 18 18 19 19 20 21 21 21 21 21 20 19 26 32 29 30 29 29 29 33 36 37 33 37 25 26 26 34 40 40 40 39 38 39 37 36 35 33 33 33 32
15 16 16 17 18 19 19 19 20 21 21 22 22 22 21 18 32 29 29 29 29 27 30 33 36 36 36 30 28 25 29 30 40 41 40 39 39 38 38 37 36 35 34 33 33
15 15 16 17 18 18 19 20 21 21 21 22 22 22 21 27 33 29 29 29 27 27 31 35 36 36 29 32 28 26 28 38 40 41 39 39 39 38 37 37 36 35 34 34 34
15 16 16 17 18 19 19 20 21 21 22 22 22 22 22 29 32 28 29 27 30 31 34 36 37 38 36 36 34 33 33 39 38 39 39 38 38 38 37 37 35 35 34 35 35
15 15 16 17 18 19 20 20 21 22 22 22 22 21 26 32 32 30 30 30 32 34 36 36 37 37 38 38 36 33 34 38 37 38 39 36 36 34 37 36 35 35 35 35 35
14 15 16 17 18 19 21 21 21 22 22 22 22 22 31 32 32 32 32 32 34 34 35 36 36 36 36 38 38 36 37 36 37 36 35 36 28 35 38 36 35 35 35 35 35
15 16 16 17 19 20 21 21 21 22 22 21 20 25 32 30 32 32 33 34 34 34 35 35 35 35 37 36 37 37 35 35 34 38 35 37 27 29 33 37 36 35 35 35 35
15 16 17 18 19 20 22 22 21 21 22 21 25 29 32 32 33 33 33 34 35 35 35 34 35 35 36 36 35 36 34 34 34 37 35 29 24 25 28 34 36 36 35 35 35
16 17 18 19 20 20 22 22 25 26 26 31 32 33 34 34 33 33 34 34 35 35 33 35 34 34 36 37 38 37 35 35 36 38 32 28 27 27 29 27 37 36 36 35 35
16 17 18 20 21 21 20 26 30 30 30 32 33 33 34 33 32 34 34 33 34 33 35 35 34 37 38 38 38 37 33 35 35 37 36 32 30 28 31 33 36 37 36 36 36
16 17 18 20 22 22 25 29 29 30 30 33 33 33 33 34 33 34 34 34 34 34 35 35 36 38 38 38 37 38 37 34 35 36 37 36 35 36 35 36 35 33 36 38 36
16 17 18 20 21 27 29 29 29 29 29 32 32 34 34 34 34 36 35 34 34 34 35 36 38 37 37 37 37 36 38 36 35 36 35 36 33 35 37 35 37 36 38 38 37
16 17 19 18 18 27 29 29 29 30 29 32 33 35 35 34 35 34 35 35 34 34 35 35 36 36 36 36 37 36 39 37 36 35 37 36 35 36 38 37 38 39 39 39 38
17 17 18 20 17 25 28 29 29 29 30 33 33 32 33 34 34 35 34 35 35 35 35 36 38 37 36 37 37 38 38 37 38 37 35 37 37 36 37 37 36 40 40 39 38
18 19 18 17 28 28 28 30 29 29 34 33 33 33 33 33 34 33 33 32 32 32 33 34 35 36 36 36 37 37 36 34 33 34 34 38 38 38 39 39 37 35 39 40 39
19 21 21 22 26 27 28 29 27 33 34 35 34 34 32 34 34 33 32 32 34 34 34 33 32 34 36 35 35 35 35 34 32 34 35 38 36 38 40 40 38 37 37 35 39
19 24 23 26 25 27 28 28 30 33 34 33 34 33 33 34 34 33 33 33 34 35 33 34 34 36 36 36 36 35 34 37 36 37 37 38 39 40 41 40 39 38 32 28 31
15 24 28 28 27 28 28 26 31 34 33 33 32 33 32 33 32 32 32 34 34 34 34 33 33 35 35 36 36 36 37 34 35 33 33 37 38 38 39 39 40 40 35 30 31
18 28 29 28 28 28 28 30 33 33 33 32 32 33 33 33 32 32 33 33 33 33 33 33 34 34 35 33 34 34 34 35 36 36 35 35 37 40 37 39 40 40 39 37 36
25 27 29 29 28 29 29 31 27 33 32 32 33 33 33 33 32 32 32 31 29 31 31 33 33 33 33 35 35 36 35 35 34 34 36 36 36 39 38 37 37 36 35 34 35
25 28 30 29 27 29 31 32 32 32 32 32 32 33 33 32 31 32 30 29 31 30 28 29 32 32 33 34 34 33 35 36 36 36 35 35 36 37 36 33 34 34 33 33 32
24 27 30 30 29 29 29 30 30 32 31 32 32 32 32 31 32 31 30 30 29 30 24 27 29 29 30 32 33 33 33 35 35 34 35 36 33 29 25 28 28 28 31 31 30
24 27 29 27 29 29 29 30 30 30 31 31 30 31 31 30 30 30 31 29 29 25 28 30 28 29 31 33 33 33 33 34 33 34 33 35 29 26 24 28 27 26 27 28 28
23 25 26 25 27 27 26 28 29 31 30 29 29 30 31 30 31 30 30 29 28 28 28 30 27 29 29 31 32 32 33 33 33 33 34 34 30 31 29 29 28 27 25 25 24
23 24 24 23 25 26 27 28 29 29 31 30 30 30 30 30 31 31 31 32 31 29 27 28 29 28 27 30 31 30 32 32 33 33 33 32 29 31 29 27 27 27 26 24 23
Height
793 790 786 783 779 776 773 770 767 764 762 760 757 755 753 751 748 747 741 736 737 738 739 740 739 734 733 723 714 734 768 745 729 726 729 713 725 719 723 735 735 741 751 763 772
793 789 786 782 778 775 772 769 766 763 761 759 757 754 752 750 747 741 736 735 735 737 739 735 730 727 727 718 728 765 786 746 703 705 717 716 726 730 735 741 744 749 756 766 772
793 789 785 781 777 774 770 767 764 762 760 758 756 754 751 750 745 730 732 734 735 736 737 731 724 721 734 720 763 776 781 731 703 700 703 716 724 719 734 747 745 757 761 765 771
792 788 784 781 776 771 768 765 762 760 758 756 755 753 751 751 742 731 731 732 734 736 738 730 724 727 728 757 752 779 755 740 706 699 704 715 711 722 724 734 738 750 757 763 767
791 787 782 778 775 771 766 762 760 758 755 753 752 751 751 744 730 731 731 733 735 737 735 727 727 724 750 739 753 766 754 710 700 699 707 709 715 724 733 733 740 751 757 762 763
790 786 781 777 772 768 764 761 758 756 754 752 751 752 752 748 730 732 733 734 734 735 730 725 720 713 722 724 733 731 729 709 711 708 707 717 723 722 731 734 744 753 758 759 762
789 784 780 776 771 766 762 758 757 755 753 751 750 751 748 734 731 734 735 735 733 730 725 723 721 721 710 717 715 730 739 721 722 715 712 722 736 745 732 739 749 753 755 757 762
788 783 779 774 769 764 760 757 755 754 752 751 750 753 735 732 732 732 733 733 730 729 727 725 726 725 723 710 713 731 729 749 729 722 725 730 790 740 726 739 751 753 754 757 761
786 782 777 773 767 762 758 755 754 753 752 751 751 748 732 732 731 730 729 729 730 730 730 729 730 730 723 730 735 730 753 753 749 719 734 732 782 763 744 733 746 751 754 757 761
785 780 775 771 766 760 756 754 753 752 751 752 749 747 729 729 727 729 729 727 729 728 731 733 732 738 733 734 755 742 758 754 757 726 733 767 786 775 754 742 737 744 751 756 760
784 779 774 769 764 759 755 755 753 751 747 731 728 724 720 720 725 727 727 728 727 729 744 731 746 748 733 723 715 724 742 746 735 722 749 776 777 767 751 756 727 734 746 752 756
783 778 772 767 762 758 756 751 741 742 741 725 722 721 719 723 731 726 728 733 734 744 732 736 747 723 715 713 719 727 756 751 740 724 737 756 768 765 746 743 722 730 736 743 749
781 776 771 765 759 757 753 745 744 741 739 723 721 723 721 721 724 725 726 727 734 740 733 737 727 713 715 721 725 724 733 748 745 734 727 739 753 741 738 728 725 734 729 729 740
780 775 769 763 762 752 745 746 744 742 750 730 727 717 717 718 724 713 721 725 727 739 729 729 708 715 720 725 724 739 714 733 744 746 766 738 781 745 733 734 723 725 721 723 732
778 773 768 764 759 751 746 746 745 743 766 725 721 708 710 720 713 719 717 720 734 731 728 733 725 724 729 730 721 734 708 723 736 744 735 744 761 747 726 735 721 713 715 716 724
775 771 764 762 759 751 749 746 745 761 758 725 715 724 724 718 718 713 721 717 716 725 721 721 704 713 723 718 717 711 719 725 722 736 761 739 746 744 736 727 726 707 705 709 717
771 766 762 760 750 750 748 745 760 760 711 723 724 720 722 728 724 726 734 740 742 753 747 732 726 716 716 728 717 724 738 771 780 772 772 724 735 730 712 704 712 721 707 703 710
765 760 758 755 752 752 749 752 770 717 714 702 710 716 730 718 722 728 734 741 725 725 731 748 756 731 719 726 732 736 739 762 789 774 758 723 745 721 690 689 698 702 709 707 704
762 755 753 749 751 751 749 759 743 718 705 716 714 725 726 717 721 730 732 731 720 720 741 733 736 706 713 719 719 733 750 723 743 730 743 723 711 693 686 694 696 700 718 729 720
765 755 742 744 747 748 752 755 728 706 709 711 731 718 729 722 735 733 735 721 721 720 718 728 740 716 717 716 715 721 716 753 745 777 775 736 726 723 703 701 693 698 711 719 708
764 747 735 742 745 745 753 733 715 704 712 721 720 720 718 723 728 732 730 722 722 728 726 727 731 732 721 736 737 736 739 733 726 738 761 763 735 682 699 694 695 696 697 704 704
760 750 737 740 749 738 740 725 719 711 713 715 711 710 716 715 724 730 735 731 733 733 743 730 733 742 737 717 716 717 728 730 748 755 734 736 740 689 692 700 699 706 709 711 716
759 742 733 738 751 737 720 716 713 717 716 719 718 707 705 716 732 722 732 737 732 741 753 747 743 753 740 733 726 733 721 718 723 724 740 751 744 696 705 720 717 717 718 721 720
764 746 726 728 730 733 730 723 722 712 716 710 714 711 718 721 716 726 733 737 736 739 751 750 750 757 761 743 727 739 733 724 728 742 738 734 739 745 750 749 748 743 734 730 731
761 745 731 740 726 726 726 724 721 724 719 715 721 720 725 734 731 735 730 740 743 751 748 747 763 753 743 730 731 730 731 729 740 733 744 731 753 761 770 762 759 755 753 747 744
766 752 745 743 735 734 731 727 725 714 720 730 730 722 717 727 724 733 729 738 747 745 749 743 765 755 757 737 732 741 729 729 731 735 733 731 753 744 754 756 756 761 763 764 761
763 757 755 750 742 738 731 725 721 714 710 715 720 722 722 720 713 714 716 717 726 737 752 754 756 763 771 747 744 755 740 737 737 735 738 752 755 741 755 760 763 767 766 768 768
Wind_Speed
22 23 22 22 21 21 21 21 20 18 17 14 14 12 11 13 13 9 10 2 5 3 11 9 13 14 13 15 8 6 4 3 13 15 18 13 15 18 18 10 9 21 20 24 24
22 24 23 22 21 21 21 20 18 18 17 15 14 13 13 14 12 16 12 7 8 6 9 14 11 11 11 16 5 8 4 9 10 16 17 17 17 15 15 14 19 21 24 25 24
21 22 23 23 23 23 22 20 17 16 15 15 14 12 13 12 8 4 8 9 10 12 16 17 16 9 9 13 8 8 8 18 10 14 20 19 19 15 15 15 19 22 20 20 22
22 23 23 22 23 23 22 21 18 14 15 15 12 12 12 4 1 5 2 8 10 11 12 17 12 13 11 9 16 3 18 25 8 11 12 14 19 9 8 19 21 21 21 19 18
24 25 24 23 24 23 23 20 16 16 12 11 8 10 6 7 2 2 5 10 10 10 13 12 11 12 3 4 12 12 20 8 7 8 21 7 16 20 19 19 21 20 19 18 16
25 26 25 24 26 24 24 18 14 11 10 6 3 7 4 8 5 6 9 12 12 13 14 12 12 11 6 14 8 2 18 6 3 2 3 19 10 16 19 18 20 18 18 16 16
27 26 25 24 26 26 24 15 11 7 7 3 3 2 8 7 1 7 11 13 14 14 10 9 13 13 11 8 19 21 19 2 3 12 6 8 20 12 17 18 18 17 16 14 13
27 26 25 25 27 26 21 12 8 4 4 4 2 5 5 2 3 9 12 13 11 10 9 6 8 12 15 11 4 7 4 8 11 13 9 4 7 12 22 19 16 17 15 15 14
27 26 26 25 26 26 16 11 7 5 6 5 4 8 6 5 10 11 12 12 9 12 9 7 8 13 15 13 10 9 5 9 5 13 16 10 4 15 17 20 17 16 14 14 14
28 26 26 26 25 25 13 11 9 8 7 8 14 8 8 9 13 13 12 12 9 10 10 10 7 10 12 12 12 12 10 7 7 13 15 21 13 18 22 12 20 18 16 14 15
28 27 26 27 24 20 14 7 4 6 12 9 13 9 6 12 12 13 12 10 11 9 13 14 10 13 18 17 17 6 9 12 18 10 18 12 14 23 20 20 19 20 18 15 16
27 28 28 27 24 12 10 6 7 8 10 18 7 4 2 10 8 12 13 11 11 13 15 11 15 17 17 17 16 7 22 14 5 8 3 11 17 23 21 16 14 18 20 19 18
26 27 30 27 18 9 11 12 7 9 6 12 10 13 12 11 12 15 15 14 11 14 15 16 16 17 17 17 14 16 13 13 8 12 12 8 14 14 8 14 17 18 14 20 19
28 27 30 27 9 11 10 1 7 4 6 13 10 9 12 13 14 16 16 13 7 13 16 16 18 14 17 12 9 13 11 8 10 12 9 11 3 6 15 17 21 23 18 17 19
30 28 30 17 14 8 6 5 8 6 5 11 12 12 9 16 13 10 14 15 14 13 12 12 16 9 7 11 13 14 15 13 14 11 10 14 11 12 13 13 10 16 15 16 20
32 31 28 3 7 13 10 8 7 6 4 10 10 9 15 15 8 14 10 10 11 13 13 16 12 9 14 14 15 13 13 9 7 11 13 15 13 11 14 14 14 15 19 18 20
33 29 19 10 3 5 6 7 6 9 7 11 13 14 16 13 12 9 13 14 12 10 12 13 11 4 11 15 16 11 12 6 8 10 12 17 15 10 12 11 8 9 14 18 20
34 18 8 11 8 7 8 7 7 9 11 4 9 16 15 16 13 11 14 14 18 13 10 12 14 15 15 17 13 13 17 9 12 10 13 16 15 14 16 13 19 17 15 7 11
32 8 7 10 8 7 7 9 13 11 4 4 7 12 15 14 7 13 13 15 13 12 9 8 15 20 15 14 19 14 16 18 20 19 13 13 18 15 15 13 18 16 18 9 25
20 12 19 8 8 9 7 15 18 8 8 5 13 11 15 13 8 12 13 11 4 3 9 12 6 11 11 8 16 16 12 13 12 16 16 11 12 11 16 16 12 10 21 28 27
7 6 15 8 8 6 10 15 14 5 6 10 11 12 15 11 14 12 9 7 4 1 7 15 10 8 10 10 13 12 13 10 13 15 12 10 7 10 12 6 13 11 11 16 15
8 5 11 9 7 7 12 19 9 6 6 12 9 16 12 12 15 14 17 5 8 7 12 11 9 7 13 17 16 18 17 16 9 13 11 13 3 15 13 17 17 18 16 16 13
5 10 7 9 8 11 17 18 4 11 10 13 11 9 3 10 7 16 12 6 6 3 4 9 8 10 10 6 5 8 13 14 18 16 13 11 3 14 19 18 19 15 14 12 16
5 5 7 8 10 17 16 16 12 12 9 14 11 10 8 8 10 9 11 5 4 3 4 3 10 14 10 11 7 18 15 12 12 10 13 14 12 17 14 17 14 15 14 12 12
5 6 10 7 8 11 15 18 16 15 13 6 10 8 12 12 11 10 6 8 5 5 2 4 12 14 17 14 4 13 15 11 11 13 11 3 14 11 11 6 8 11 15 15 13
5 8 10 13 15 17 14 16 20 16 14 18 15 15 17 16 14 12 17 12 8 11 6 9 10 13 17 18 6 12 8 3 8 11 13 12 17 13 17 12 8 7 7 10 12
14 17 7 9 13 14 14 17 16 18 11 14 15 14 14 4 3 6 9 7 5 11 6 11 11 11 15 12 15 14 13 11 10 11 11 10 14 7 11 10 9 8 5 7 8
Wind_Direction
1 359 357 353 349 345 342 337 336 333 327 321 320 322 321 320 307 275 248 192 183 267 189 229 229 240 241 259 238 56 3 325 154 135 115 121 94 83 102 128 99 103 139 129 136
358 356 354 352 349 345 341 337 334 332 327 323 322 322 318 326 302 253 226 231 254 222 212 229 221 226 237 271 40 75 321 294 64 119 127 122 117 135 133 118 105 103 113 135 141
355 352 350 349 348 344 340 336 331 330 327 322 321 317 314 329 262 93 192 223 240 214 232 279 267 244 241 268 79 129 246 277 128 110 136 117 141 153 145 131 127 132 138 144 150
351 349 347 346 345 342 338 334 326 326 324 317 307 306 313 301 347 108 232 201 207 203 239 257 256 259 264 82 96 67 241 255 167 143 137 138 148 131 119 119 125 137 144 148 159
348 346 345 344 343 341 336 330 327 324 324 322 299 299 327 232 279 66 179 183 182 192 238 250 240 245 53 260 129 185 261 265 120 148 100 196 128 113 107 113 125 138 146 155 159
346 345 344 344 341 338 335 327 325 327 327 332 276 299 269 256 61 143 151 168 185 207 231 245 257 273 255 247 139 281 302 68 314 27 267 119 135 114 113 128 135 147 153 164 147
346 344 343 342 339 334 332 325 326 328 327 318 280 277 260 294 191 158 167 187 209 216 241 251 280 299 260 286 139 148 255 189 82 294 169 46 120 120 126 135 145 155 160 153 159
344 342 342 340 338 333 330 320 318 318 315 309 239 234 283 139 227 186 186 205 211 232 262 292 270 284 286 304 174 185 271 205 151 249 354 196 308 149 142 141 154 158 162 152 160
342 341 341 341 338 332 322 310 294 291 285 288 253 219 245 163 202 196 198 202 205 228 230 267 262 252 265 255 225 164 182 242 287 248 201 184 46 306 296 149 157 158 162 164 163
341 340 338 338 336 330 313 307 277 282 278 250 269 254 194 209 185 187 199 198 200 214 223 224 230 236 239 235 226 187 169 158 220 263 114 89 83 314 283 266 159 161 162 172 169
341 339 336 337 334 324 311 294 207 205 229 277 140 262 155 156 152 190 198 216 207 219 223 203 214 216 223 237 243 154 226 199 199 251 103 113 107 216 247 268 162 159 163 177 174
342 340 336 335 329 307 297 260 35 331 295 213 258 297 327 148 187 196 184 213 208 213 225 187 228 232 227 240 247 248 163 210 277 236 140 152 182 219 241 202 222 166 169 171 176
342 339 335 333 323 276 243 296 323 317 265 177 208 213 193 211 201 190 190 214 206 224 218 232 219 227 245 239 251 232 225 161 211 211 269 214 187 214 245 207 147 231 177 169 172
341 338 335 331 306 319 250 306 296 320 272 159 189 223 173 212 215 175 192 216 236 234 238 229 253 208 235 233 222 258 242 140 271 191 188 250 267 213 174 249 173 204 175 169 165
339 336 331 322 302 280 17 301 318 252 270 143 159 134 182 218 126 163 186 219 245 222 238 222 244 206 220 216 242 245 267 192 179 290 239 201 210 201 228 221 210 176 187 173 166
336 334 326 287 240 260 307 299 255 238 246 153 147 194 182 222 175 149 195 245 242 265 244 251 229 189 227 230 236 252 262 287 284 221 255 213 232 191 212 215 235 204 189 179 170
334 330 308 279 344 342 288 266 229 250 114 160 178 182 195 194 204 170 199 206 220 220 213 233 248 209 242 229 220 225 244 212 236 238 245 254 226 243 214 186 164 12 258 183 167
332 321 280 251 277 268 260 239 257 249 193 108 182 187 200 198 194 184 200 214 231 225 221 207 213 205 223 244 205 213 228 220 214 228 233 229 259 220 191 176 144 148 253 19 193
333 311 229 250 219 246 249 231 228 287 282 155 215 188 207 182 202 199 223 223 196 240 290 264 222 192 190 220 247 194 228 242 264 276 261 237 210 238 165 176 169 165 123 72 255
327 293 254 165 188 219 241 258 296 314 345 238 222 218 209 179 185 199 198 233 163 12 320 317 114 151 172 213 244 259 207 226 242 258 271 268 261 208 183 188 191 189 160 180 219
291 260 127 160 189 230 242 248 262 126 279 255 245 212 239 183 201 222 243 128 111 149 265 297 287 163 208 199 234 223 246 257 251 227 249 255 271 245 81 297 174 178 87 34 16
288 276 140 192 231 231 244 250 275 271 223 271 292 282 208 237 199 222 215 104 50 336 301 243 291 244 196 218 223 239 218 234 234 234 237 257 109 59 99 61 68 69 48 37 16
285 295 204 220 248 238 244 244 324 258 205 234 231 269 234 220 201 231 108 83 107 162 332 339 238 245 155 152 276 267 263 213 234 264 240 237 282 90 89 56 36 58 55 41 16
283 289 204 196 249 279 295 290 227 236 286 239 238 221 238 236 192 221 119 108 97 312 8 303 291 300 297 324 326 193 238 241 257 233 238 241 118 55 48 40 32 18 20 42 31
250 270 338 299 253 250 253 270 276 220 226 257 257 218 219 228 201 220 213 138 204 150 261 253 270 287 296 298 282 299 197 218 234 271 282 211 94 94 51 41 52 35 5 21 22
291 330 333 306 294 285 280 270 264 252 186 240 238 226 238 229 218 204 213 158 202 173 217 246 267 288 290 295 252 259 279 245 201 244 273 296 97 111 158 142 58 48 28 16 14
299 312 276 275 283 280 260 271 263 269 230 209 237 247 235 283 40 4 350 170 182 188 182 252 246 245 264 273 279 255 241 245 231 245 272 280 87 60 78 57 46 16 30 23 23